This demonstration page uses our WeatherBlox Daily Observations layout. Learn more.

Left ArrowRight Arrow

34.02893, -84.19858

Hourly Observations for June 7, 2022

Temp ( °F °C ) Dew Point ( °F °C ) Humidity (%) Winds ( mph kmh ) Pressure ( in mb ) Visibility ( mi km ) Precip ( " mm )
12:53 am 00:53 Clear 70 21.1 65 18.3 84 84 VRB 5 7 29.92 1013 10 16 0.00 0.00
1:53 am 01:53 Clear 70 21.1 65 18.3 84 84 S 5 7 29.93 1013 10 16 0.00 0.00
2:53 am 02:53 Mostly Clear 70 21.1 66 18.9 87 87 S 5 7 29.93 1014 10 16 0.00 0.00
3:53 am 03:53 Mostly Clear 68 20 65 18.3 90 90 SSE 3 6 29.92 1013 10 16 0.00 0.00
4:53 am 04:53 Mostly Cloudy 68 20 66 18.9 93 93 SSE 3 6 29.92 1013 10 16 0.00 0.00
5:53 am 05:53 Cloudy 69 20.6 67 19.4 93 93 S 5 7 29.93 1013 10 16 0.00 0.00
6:53 am 06:53 Cloudy 69 20.6 67 19.4 93 93 S 6 9 29.96 1014 10 16 0.00 0.00
7:45 am 07:45 Cloudy 70 21.1 67 19.4 90 90 SSE 8 13 29.98 1015 10 16 0.00 0.00
7:53 am 07:53 Cloudy 70 21.1 67 19.4 90 90 S 7 11 29.97 1015 10 16 0.00 0.00
8:53 am 08:53 Cloudy 70 21.1 67 19.4 90 90 S 5 7 29.98 1015 10 16 0.00 0.00
9:53 am 09:53 Cloudy 72 22.2 68 20 87 87 S 6 9 29.98 1015 10 16 0.00 0.00
10:32 am 10:32 Cloudy 73 22.8 69 20.6 87 87 S 6 9 29.98 1015 10 16 0.00 0.00
10:39 am 10:39 Cloudy 73 22.8 69 20.6 87 87 S 5 7 29.98 1015 10 16 0.00 0.00
10:53 am 10:53 Cloudy 73 22.8 69 20.6 87 87 S 8 13 29.98 1015 10 16 0.00 0.00
11:44 am 11:44 Cloudy 76 24.4 70 21.1 82 82 VRB 3 6 29.99 1016 10 16 0.00 0.00
11:53 am 11:53 Cloudy 76 24.4 69 20.6 79 79 SSW 7 11 29.98 1015 10 16 0.00 0.00
12:53 pm 12:53 Partly Cloudy 78 25.6 70 21.1 76 76 SW 6 9 29.97 1015 10 16 0.00 0.00
1:53 pm 13:53 Partly Cloudy 81 27.2 69 20.6 67 67 WSW 10 17 29.95 1014 10 16 0.00 0.00
2:08 pm 14:08 Mostly Cloudy 81 27.2 69 20.6 67 67 W 10 17 29.96 1015 10 16 0.00 0.00
2:21 pm 14:21 Partly Cloudy 81 27.2 70 21.1 69 69 W 8 13 29.95 1014 10 16 0.00 0.00
2:53 pm 14:53 Sunny 82 27.8 68 20 63 63 W 9 15 29.94 1014 10 16 0.00 0.00
3:53 pm 15:53 Sunny 81 27.2 67 19.4 62 62 VRB 5 7 29.93 1014 10 16 0.00 0.00
4:53 pm 16:53 Mostly Sunny 81 27.2 67 19.4 62 62 WSW 7 11 29.93 1014 10 16 0.00 0.00
5:53 pm 17:53 Sunny 80 26.7 68 20 67 67 Calm 29.92 1013 10 16 0.00 0.00
6:53 pm 18:53 Mostly Cloudy 79 26.1 70 21.1 74 74 Calm 29.93 1013 10 16 0.00 0.00
7:53 pm 19:53 Partly Cloudy 77 25 70 21.1 79 79 Calm 29.94 1014 10 16 0.00 0.00
8:53 pm 20:53 Mostly Cloudy 77 25 70 21.1 79 79 Calm 29.94 1014 10 16 0.00 0.00
9:53 pm 21:53 Mostly Cloudy 76 24.4 70 21.1 82 82 Calm 29.96 1014 10 16 0.00 0.00
10:28 pm 22:28 Mostly Cloudy with Nearby Thunderstorms 76 24.4 70 21.1 82 82 WSW 3 6 29.97 1015 9 14 0.00 0.00
10:45 pm 22:45 Cloudy with Light Rain 75 23.9 72 22.2 90 90 WNW 6 9 29.99 1016 6 10 0.02 0.51
10:53 pm 22:53 Cloudy with Nearby Thunderstorms 75 23.9 72 22.2 90 90 NW 8 13 29.99 1016 4 6 0.04 1.02
11:04 pm 23:04 Cloudy with Thunderstorms 74 23.3 72 22.2 94 94 NNW 10 17 30.00 1016 5 8 0.02 0.51
11:21 pm 23:21 Cloudy with Strong Thunderstorms 73 22.8 71 21.7 94 94 NW 7 11 30.01 1016 2 3 0.19 4.83
11:35 pm 23:35 Cloudy with Thunderstorms 70 21.1 68 20 93 93 SW 10 17 30.02 1017 3 4 0.27 6.86
11:43 pm 23:43 Cloudy with Thunderstorms 70 21.1 68 20 93 93 SW 12 19 30.01 1016 4 6 0.28 7.11
11:53 pm 23:53 Cloudy with Thunderstorms 69 20.6 67 19.4 93 93 SSW 12 19 29.99 1016 5 8 0.30 7.62

Powered by AerisWeather